HG8GL Weather Reports


Display with metric or nautical units.
time (UTC)temp
F
wind
direction
speed
MPH
gust
MPH
rain 1hr
in
rain 24hr
in
rain mn
in
humidity
%
barometer
mb
20260506072511 71 227 0.0 0.0 0.00 0.00 0.00 46 1012.1
20260506072010 70 243 0.0 0.0 0.00 0.00 0.00 47 1013.0
20260506071508 70 169 0.0 0.0 0.00 0.00 0.00 48 1013.0
20260506071009 69 158 0.0 0.0 0.00 0.00 0.00 47 1013.0
20260506062511 66 199 0.0 0.0 0.00 0.00 0.00 54 1012.9
20260506062011 66 189 0.0 0.0 0.00 0.00 0.00 54 1012.0
20260506061509 65 171 0.0 0.0 0.00 0.00 0.00 55 1012.0
20260506061008 65 158 0.0 0.0 0.00 0.00 0.00 55 1012.2
20260506051008 59 160 0.0 0.0 0.00 0.00 0.00 72 1012.2
20260506044508 57 170 0.0 0.0 0.00 0.00 0.00 74 1012.0
20260506044009 56 177 0.0 0.0 0.00 0.00 0.00 74 1012.0
20260506043510 56 160 0.0 0.0 0.00 0.00 0.00 74 1012.0
20260506042011 55 151 0.0 0.0 0.00 0.00 0.00 74 1012.0
20260506041008 55 159 0.0 0.0 0.00 0.00 0.00 74 1012.0
20260506040009 55 163 0.0 0.0 0.00 0.00 0.00 74 1012.0
20260506035507 55 158 0.0 0.0 0.00 0.00 0.00 74 1012.0
20260506035009 55 165 0.0 0.0 0.00 0.00 0.00 73 1012.0
20260506034508 55 161 0.0 0.0 0.00 0.00 0.00 73 1012.0
20260506034010 55 168 0.0 0.0 0.00 0.00 0.00 72 1012.0
20260506033508 55 161 0.0 0.0 0.00 0.00 0.00 72 1012.0
20260506033008 55 162 0.0 0.0 0.00 0.00 0.00 72 1012.0
20260506032507 55 167 0.0 0.0 0.00 0.00 0.00 71 1012.0
20260506032008 55 165 0.0 0.0 0.00 0.00 0.00 71 1012.0
20260506031510 55 161 0.0 0.0 0.00 0.00 0.00 70 1012.0
20260506031008 55 158 0.0 0.0 0.00 0.00 0.00 69 1012.0
20260506025511 55 162 0.0 0.0 0.00 0.00 0.00 68 1012.0
20260506025009 55 158 0.0 0.0 0.00 0.00 0.00 68 1012.0
20260506024511 54 172 0.0 0.0 0.00 0.00 0.00 67 1012.0
20260506024009 54 158 0.0 0.0 0.00 0.00 0.00 66 1012.0
20260506023508 54 169 0.0 0.0 0.00 0.00 0.00 65 1012.0
20260506023009 54 179 0.0 0.0 0.00 0.00 0.00 65 1012.0
20260506022511 54 179 0.0 0.0 0.00 0.00 0.00 65 1012.1
20260506022010 54 161 0.0 0.0 0.00 0.00 0.00 65 1013.0
20260506021510 54 176 0.0 0.0 0.00 0.00 0.00 65 1013.0
20260506021011 54 180 0.0 0.0 0.00 0.00 0.00 64 1013.0
20260506020008 54 158 0.0 0.0 0.00 0.00 0.00 63 1013.0
20260506015508 55 158 0.0 0.0 0.00 0.00 0.00 63 1013.0
20260506015008 55 158 0.0 0.0 0.00 0.00 0.00 63 1012.0
20260506014507 55 180 0.0 0.0 0.00 0.00 0.00 62 1012.0
20260506013509 55 202 0.0 0.0 0.00 0.00 0.00 61 1013.0
20260506013010 55 220 0.0 0.0 0.00 0.00 0.00 61 1013.0
20260506012008 56 191 0.0 0.0 0.00 0.00 0.00 60 1012.0
20260506011509 56 169 0.0 0.0 0.00 0.00 0.00 60 1012.0
20260506011010 56 176 0.0 0.0 0.00 0.00 0.00 59 1012.0
20260506010008 56 180 0.0 0.0 0.00 0.00 0.00 58 1012.0
20260506005509 57 180 0.0 0.0 0.00 0.00 0.00 57 1012.0
20260506005008 57 180 0.0 0.0 0.00 0.00 0.00 57 1012.0
20260506004508 57 202 0.0 0.0 0.00 0.00 0.00 56 1012.0
20260506004008 58 202 0.0 0.0 0.00 0.00 0.00 56 1012.0
20260506003509 58 202 0.0 0.0 0.00 0.00 0.00 55 1012.0
20260506003009 58 213 0.0 0.0 0.00 0.00 0.00 55 1012.0
20260506002509 58 236 0.0 0.0 0.00 0.00 0.00 55 1012.0
20260506002009 59 232 0.0 0.0 0.00 0.00 0.00 55 1012.0
20260506001509 59 202 0.0 0.0 0.00 0.00 0.00 54 1012.0
20260506001008 59 233 0.0 0.0 0.00 0.00 0.00 54 1012.0
20260506000008 60 248 0.0 0.0 0.00 0.00 0.00 55 1012.0
20260505235508 60 235 0.0 0.0 0.00 0.00 0.00 55 1012.0
20260505235008 60 233 0.0 0.0 0.00 0.00 0.00 56 1012.0
20260505234509 60 241 0.0 0.0 0.00 0.00 0.00 55 1012.0
20260505233509 60 223 0.0 0.0 0.00 0.00 0.00 56 1012.0
20260505233010 60 255 0.0 0.0 0.00 0.00 0.00 55 1012.0
20260505232010 60 247 0.0 0.0 0.00 0.00 0.00 55 1012.0
20260505230008 59 248 0.0 0.0 0.00 0.00 0.00 55 1012.0
20260505225510 58 227 0.0 0.0 0.00 0.00 0.00 51 1012.0
20260505225008 58 218 0.0 0.0 0.00 0.00 0.00 49 1012.0
20260505223009 59 202 0.0 0.0 0.00 0.00 0.00 47 1012.0
20260505222508 60 202 0.0 0.0 0.00 0.00 0.00 47 1012.0
20260505222008 60 202 0.0 0.0 0.00 0.00 0.00 46 1012.0
20260505221508 61 180 0.0 0.0 0.00 0.00 0.00 46 1012.0
20260505221008 61 191 0.0 0.0 0.00 0.00 0.00 45 1012.0
20260505220008 62 202 0.0 0.0 0.00 0.00 0.00 45 1012.0
20260505215507 62 208 0.0 0.0 0.00 0.00 0.00 44 1012.0
20260505214508 63 229 0.0 0.0 0.00 0.00 0.00 44 1012.0
20260505214011 63 244 0.0 0.0 0.00 0.00 0.00 44 1012.0
20260505213509 63 253 0.0 0.0 0.00 0.00 0.00 44 1012.0
20260505213008 64 264 0.0 0.0 0.00 0.00 0.00 44 1012.0
20260505212508 64 252 0.0 0.0 0.00 0.00 0.00 44 1012.0
20260505212008 64 252 0.0 0.0 0.00 0.00 0.00 43 1012.0
20260505211508 65 251 0.0 0.0 0.00 0.00 0.00 43 1012.0
20260505211010 65 256 0.0 0.0 0.00 0.00 0.00 43 1012.0
20260505210011 66 254 0.0 0.0 0.00 0.00 0.00 43 1012.0
20260505205510 66 262 0.0 0.0 0.00 0.00 0.00 42 1012.0
20260505205009 66 281 0.0 0.0 0.00 0.00 0.00 41 1012.0
20260505204510 66 269 0.0 0.0 0.00 0.00 0.00 40 1012.0
20260505204009 66 275 0.0 0.0 0.00 0.00 0.00 39 1012.0
20260505203509 66 257 0.0 0.0 0.00 0.00 0.00 38 1012.0
20260505203008 67 276 0.0 0.0 0.00 0.00 0.00 37 1012.0
20260505202509 67 273 0.0 0.0 0.00 0.00 0.00 37 1012.0
20260505202008 67 281 0.0 0.0 0.00 0.00 0.00 36 1012.0
20260505201508 67 263 0.0 0.0 0.00 0.00 0.00 35 1012.0
20260505201010 67 267 0.0 0.0 0.00 0.00 0.00 35 1012.0
20260505200008 67 256 0.0 0.0 0.00 0.00 0.00 34 1012.0
20260505195509 67 244 0.0 0.0 0.00 0.00 0.00 34 1011.9
20260505195008 67 248 0.0 0.0 0.00 0.00 0.00 34 1011.0
20260505194508 67 257 0.0 0.0 0.00 0.00 0.00 34 1011.0
20260505194008 67 248 0.0 0.0 0.00 0.00 0.00 34 1011.0
20260505193508 67 249 0.0 0.0 0.00 0.00 0.00 34 1011.0
20260505193009 66 248 0.0 0.0 0.00 0.00 0.00 34 1011.0
20260505192507 66 254 0.0 0.0 0.00 0.00 0.00 34 1010.8
20260505192009 66 251 0.0 0.0 0.00 0.00 0.00 34 1010.0
20260505191508 66 257 0.0 0.0 0.00 0.00 0.00 34 1010.0
20260505190008 66 248 0.0 0.0 0.00 0.00 0.00 34 1010.0
20260505185508 66 202 0.0 0.0 0.00 0.00 0.00 34 1009.9
20260505184507 67 202 0.0 0.0 0.00 0.00 0.00 33 1009.0
20260505184008 68 202 0.0 0.0 0.00 0.00 0.00 32 1009.1
20260505183508 69 202 0.0 0.0 0.00 0.00 0.00 32 1010.0
20260505183008 69 202 0.0 0.0 0.00 0.00 0.00 31 1010.0
20260505182508 70 158 0.0 0.0 0.00 0.00 0.00 30 1010.1
20260505182009 71 177 0.0 0.0 0.00 0.00 0.00 29 1011.0
20260505181508 71 180 0.0 0.0 0.00 0.00 0.00 28 1011.0
20260505181008 72 180 0.0 0.0 0.00 0.00 0.00 27 1010.9
20260505175510 74 226 0.0 0.0 0.00 0.00 0.00 25 1010.0
20260505175009 74 233 0.0 0.0 0.00 0.00 0.00 25 1010.0
20260505174509 75 236 0.0 0.0 0.00 0.00 0.00 25 1010.0
20260505174009 75 216 0.0 0.0 0.00 0.00 0.00 24 1010.0
20260505173510 76 218 0.0 0.0 0.00 0.00 0.00 24 1010.0
20260505173008 76 219 0.0 0.0 0.00 0.00 0.00 24 1010.0
20260505172508 77 219 0.0 0.0 0.00 0.00 0.00 24 1010.2
20260505172009 77 247 0.0 0.0 0.00 0.00 0.00 23 1011.0
20260505171507 77 203 0.0 0.0 0.00 0.00 0.00 23 1011.0
20260505170009 78 229 0.0 0.0 0.00 0.00 0.00 23 1010.0
20260505165509 78 241 0.0 0.0 0.00 0.00 0.00 22 1010.0
20260505165011 79 236 0.0 0.0 0.00 0.00 0.00 22 1010.0
20260505164508 79 221 0.0 0.0 0.00 0.00 0.00 22 1010.0
20260505164010 80 230 0.0 0.0 0.00 0.00 0.00 22 1010.0
20260505163510 80 238 0.0 0.0 0.00 0.00 0.00 22 1010.0
20260505163010 80 220 0.0 0.0 0.00 0.00 0.00 22 1010.0
20260505162509 80 217 0.0 0.0 0.00 0.00 0.00 22 1010.0
20260505162009 81 232 0.0 0.0 0.00 0.00 0.00 22 1010.0
20260505153010 82 226 0.0 0.0 0.00 0.00 0.00 21 1010.0
20260505152509 82 171 0.0 0.0 0.00 0.00 0.00 21 1010.1
20260505152008 81 158 0.0 0.0 0.00 0.00 0.00 21 1011.0
20260505151511 81 219 0.0 0.0 0.00 0.00 0.00 22 1011.0
20260505151008 81 209 0.0 0.0 0.00 0.00 0.00 21 1011.0
20260505125011 84 167 0.0 0.0 0.00 0.00 0.00 20 1012.0
20260505124508 85 137 0.0 0.0 0.00 0.00 0.00 21 1012.0
20260505124010 85 167 0.0 0.0 0.00 0.00 0.00 20 1012.0
20260505123511 85 207 0.0 0.0 0.00 0.00 0.00 20 1012.0
20260505123009 85 235 0.0 0.0 0.00 0.00 0.00 20 1012.0
20260505122511 85 162 0.0 0.0 0.00 0.00 0.00 21 1012.0
20260505122011 85 180 0.0 0.0 0.00 0.00 0.00 21 1012.0
20260505121508 84 155 0.0 0.0 0.00 0.00 0.00 22 1012.0
20260505121012 84 166 0.0 0.0 0.00 0.00 0.00 21 1012.2
20260505120008 84 158 0.0 0.0 0.00 0.00 0.00 21 1013.0
20260505115508 84 151 0.0 0.0 0.00 0.00 0.00 22 1012.8
20260505115008 84 158 0.0 0.0 0.00 0.00 0.00 21 1012.0
20260505114509 84 254 0.0 0.0 0.00 0.00 0.00 21 1012.0
20260505114011 84 172 0.0 0.0 0.00 0.00 0.00 22 1012.0
20260505113510 84 166 0.0 0.0 0.00 0.00 0.00 22 1012.0
20260505113008 84 199 0.0 0.0 0.00 0.00 0.00 22 1012.0
20260505112010 83 226 0.0 0.0 0.00 0.00 0.00 22 1013.0
20260505111507 84 156 0.0 0.0 0.00 0.00 0.00 23 1013.0
20260505111008 83 167 0.0 0.0 0.00 0.00 0.00 22 1013.0
20260505102009 83 158 0.0 0.0 0.00 0.00 0.00 24 1014.0
20260505101509 82 168 0.0 0.0 0.00 0.00 0.00 25 1014.0
20260505101009 82 150 0.0 0.0 0.00 0.00 0.00 25 1013.8
20260505100008 82 151 0.0 0.0 0.00 0.00 0.00 26 1013.0
20260505095509 81 159 0.0 0.0 0.00 0.00 0.00 26 1013.2
20260505095009 81 169 0.0 0.0 0.00 0.00 0.00 27 1014.0
20260505094509 81 144 0.0 0.0 0.00 0.00 0.00 27 1014.0
20260505094010 80 163 0.0 0.0 0.00 0.00 0.00 27 1014.0
20260505093509 80 169 0.0 0.0 0.00 0.00 0.00 27 1014.0
20260505093008 79 178 0.0 0.0 0.00 0.00 0.00 26 1014.0
20260505092511 80 162 0.0 0.0 0.00 0.00 0.00 27 1014.0
20260505092011 80 174 0.0 0.0 0.00 0.00 0.00 27 1014.0
20260505091508 80 165 0.0 0.0 0.00 0.00 0.00 29 1014.0
20260505091008 79 158 0.0 0.0 0.00 0.00 0.00 29 1014.0
20260505090008 78 202 0.0 0.0 0.00 0.00 0.00 28 1014.0
20260505085510 78 158 0.0 0.0 0.00 0.00 0.00 28 1014.0
20260505085010 78 165 0.0 0.0 0.00 0.00 0.00 28 1014.0
20260505084510 78 180 0.0 0.0 0.00 0.00 0.00 29 1014.0
20260505084009 78 158 0.0 0.0 0.00 0.00 0.00 31 1014.0
20260505083508 78 158 0.0 0.0 0.00 0.00 0.00 30 1014.0
20260505083009 77 229 0.0 0.0 0.00 0.00 0.00 30 1014.0
20260505082509 77 192 0.0 0.0 0.00 0.00 0.00 31 1014.0
20260505082008 77 158 0.0 0.0 0.00 0.00 0.00 31 1014.0
20260505081510 77 166 0.0 0.0 0.00 0.00 0.00 31 1014.0
20260505081008 76 180 0.0 0.0 0.00 0.00 0.00 32 1014.2
20260505080008 75 177 0.0 0.0 0.00 0.00 0.00 32 1015.0
20260505075508 75 158 0.0 0.0 0.00 0.00 0.00 32 1015.0
20260505075008 75 158 0.0 0.0 0.00 0.00 0.00 33 1015.0
20260505074507 74 167 0.0 0.0 0.00 0.00 0.00 33 1015.0
20260505074009 74 162 0.0 0.0 0.00 0.00 0.00 33 1015.0
20260505073512 73 182 0.0 0.0 0.00 0.00 0.00 33 1015.0